SAS908 KEWR-ENGM

Flight info

Callsign SAS908
Flight time N/A
Altitude 35000
Route GREKI DCT JUDDS DCT MARTN DCT CEFOU DCT ALSOP/M079F350 DCT SAVRY DCT 60N050W/M078F370 60N040W 60N030W 60N020W 60N015W DCT BALIX/N0440F370 DCT ADOPI
Aircraft A21N/M-SDE2E3FGHIRWXY/LB1

Departure

Time 2026-04-25 15:58
Airport Newark Liberty International Airport (KEWR)

Arrival

Time N/A
Airport Oslo-Gardermoen International Airport (ENGM)
Time Latitude Longitude Altitude Speed Heading
2026-04-25 13:37 40.68952 -74.17483 28 ft 0 kts 332°
2026-04-25 15:48 40.68933 -74.17467 27 ft 4 kts 320°
2026-04-25 15:48 40.68915 -74.17442 27 ft 4 kts 303°
2026-04-25 15:48 40.68911 -74.17432 27 ft 0 kts 300°
2026-04-25 15:50 40.68915 -74.17448 27 ft 6 kts 285°
2026-04-25 15:50 40.68901 -74.17511 27 ft 8 kts 233°
2026-04-25 15:50 40.68855 -74.17509 27 ft 3 kts 139°
2026-04-25 15:51 40.68854 -74.17508 27 ft 1 kts 137°
2026-04-25 15:51 40.68849 -74.17500 27 ft 2 kts 125°
2026-04-25 15:51 40.68835 -74.17467 27 ft 4 kts 117°
2026-04-25 15:51 40.68813 -74.17433 27 ft 6 kts 165°
2026-04-25 15:52 40.68764 -74.17447 28 ft 8 kts 201°
2026-04-25 15:52 40.68706 -74.17482 28 ft 10 kts 206°
2026-04-25 15:52 40.68640 -74.17524 28 ft 11 kts 206°
2026-04-25 15:52 40.68564 -74.17573 28 ft 13 kts 206°
2026-04-25 15:53 40.68481 -74.17627 28 ft 14 kts 206°
2026-04-25 15:53 40.68386 -74.17685 28 ft 17 kts 203°
2026-04-25 15:53 40.68275 -74.17756 27 ft 18 kts 206°
2026-04-25 15:53 40.68157 -74.17832 27 ft 19 kts 206°
2026-04-25 15:54 40.68034 -74.17911 27 ft 20 kts 206°
2026-04-25 15:54 40.67909 -74.17991 28 ft 20 kts 206°
2026-04-25 15:54 40.67785 -74.18070 28 ft 16 kts 205°
2026-04-25 15:54 40.67696 -74.18125 28 ft 10 kts 203°
2026-04-25 15:55 40.67633 -74.18092 28 ft 11 kts 131°
2026-04-25 15:55 40.67605 -74.18050 28 ft 0 kts 133°
2026-04-25 15:56 40.67591 -74.18030 28 ft 10 kts 133°
2026-04-25 15:57 40.67571 -74.17936 28 ft 12 kts 53°
2026-04-25 15:57 40.67648 -74.17877 27 ft 14 kts 27°
2026-04-25 15:57 40.67882 -74.17727 26 ft 73 kts 24°
2026-04-25 15:57 40.68540 -74.17307 30 ft 136 kts 24°
2026-04-25 15:58 40.69550 -74.16665 124 ft 175 kts 25°
2026-04-25 15:58 40.70629 -74.15950 802 ft 172 kts 25°
2026-04-25 15:58 40.71674 -74.15106 1322 ft 187 kts 41°
2026-04-25 15:58 40.72651 -74.13836 1765 ft 207 kts 43°
2026-04-25 15:59 40.73767 -74.12451 2108 ft 238 kts 39°
2026-04-25 15:59 40.75214 -74.11197 2637 ft 257 kts 28°
2026-04-25 15:59 40.76797 -74.10039 3475 ft 262 kts 27°
2026-04-25 15:59 40.78411 -74.08876 4311 ft 267 kts 27°
2026-04-25 16:00 40.80052 -74.07698 4837 ft 270 kts 27°
2026-04-25 16:00 40.80610 -74.07297 4939 ft 270 kts 27°
2026-04-25 16:00 40.83375 -74.05314 5144 ft 271 kts 27°
2026-04-25 16:00 40.85057 -74.04108 5170 ft 271 kts 27°
2026-04-25 16:01 40.86711 -74.02921 5166 ft 270 kts 27°
2026-04-25 16:01 40.88366 -74.01734 5162 ft 271 kts 27°
2026-04-25 16:01 40.90018 -74.00545 5163 ft 271 kts 29°
2026-04-25 16:01 40.91401 -73.98872 5460 ft 273 kts 57°
2026-04-25 16:02 40.92258 -73.96658 6272 ft 275 kts 66°
2026-04-25 16:02 40.93015 -73.94317 7127 ft 278 kts 67°
2026-04-25 16:02 40.93764 -73.91950 7967 ft 280 kts 67°
2026-04-25 16:02 40.94522 -73.89550 8780 ft 284 kts 67°
2026-04-25 16:03 40.95287 -73.87122 9538 ft 289 kts 67°
2026-04-25 16:03 40.96066 -73.84659 10145 ft 292 kts 66°
2026-04-25 16:03 40.97183 -73.82381 10765 ft 301 kts 44°
2026-04-25 16:03 40.98817 -73.80602 11421 ft 309 kts 36°
2026-04-25 16:04 41.00586 -73.78912 12078 ft 317 kts 35°
2026-04-25 16:04 41.02396 -73.77177 12682 ft 327 kts 35°
2026-04-25 16:04 41.04255 -73.75363 13027 ft 346 kts 36°
2026-04-25 16:04 41.06205 -73.73441 13330 ft 363 kts 36°
2026-04-25 16:05 41.08304 -73.71355 13689 ft 377 kts 36°
2026-04-25 16:05 41.10438 -73.69226 14342 ft 381 kts 36°
2026-04-25 16:05 41.14719 -73.64949 15339 ft 393 kts 36°
2026-04-25 16:06 41.16890 -73.62776 16103 ft 390 kts 36°
2026-04-25 16:06 41.19064 -73.60597 16702 ft 393 kts 36°
2026-04-25 16:06 41.21255 -73.58400 17249 ft 396 kts 36°
2026-04-25 16:06 41.23458 -73.56188 17765 ft 399 kts 37°
2026-04-25 16:07 41.25682 -73.53953 18264 ft 402 kts 36°
2026-04-25 16:07 41.26432 -73.53200 18432 ft 403 kts 36°
2026-04-25 16:07 41.30187 -73.49424 19061 ft 412 kts 37°
2026-04-25 16:07 41.32502 -73.47095 19282 ft 421 kts 37°
2026-04-25 16:08 41.34860 -73.44718 19471 ft 429 kts 37°
2026-04-25 16:08 41.37257 -73.42302 19758 ft 434 kts 37°
2026-04-25 16:08 41.39664 -73.39872 20185 ft 434 kts 37°
2026-04-25 16:08 41.42048 -73.37461 20917 ft 426 kts 37°
2026-04-25 16:09 41.44398 -73.35083 21574 ft 423 kts 37°
2026-04-25 16:09 41.46714 -73.32737 22030 ft 425 kts 37°
2026-04-25 16:09 41.48964 -73.30168 22440 ft 428 kts 44°
2026-04-25 16:09 41.51089 -73.27363 22851 ft 431 kts 44°
2026-04-25 16:10 41.53214 -73.24525 23254 ft 433 kts 45°
2026-04-25 16:10 41.55347 -73.21674 23689 ft 436 kts 44°
2026-04-25 16:10 41.57498 -73.18808 24112 ft 439 kts 44°
2026-04-25 16:10 41.59781 -73.16075 24527 ft 441 kts 37°
2026-04-25 16:11 41.62389 -73.13919 24933 ft 443 kts 25°
2026-04-25 16:11 41.65284 -73.12502 25326 ft 444 kts 13°
2026-04-25 16:11 41.68335 -73.11899 25708 ft 445 kts
2026-04-25 16:11 41.71420 -73.12098 26083 ft 446 kts 352°
2026-04-25 16:12 41.73476 -73.12451 26337 ft 448 kts 351°
2026-04-25 16:12 41.76569 -73.13017 26702 ft 451 kts 351°
2026-04-25 16:12 41.79686 -73.13573 27062 ft 453 kts 351°
2026-04-25 16:12 41.81757 -73.13934 27292 ft 454 kts 352°
2026-04-25 16:13 41.87000 -73.14828 27844 ft 459 kts 352°
2026-04-25 16:13 41.89141 -73.15191 28090 ft 459 kts 352°
2026-04-25 16:13 41.92305 -73.15727 28518 ft 458 kts 352°
2026-04-25 16:13 41.95463 -73.16264 28919 ft 457 kts 352°
2026-04-25 16:14 41.98620 -73.16806 29232 ft 457 kts 352°
2026-04-25 16:14 42.04887 -73.17879 29307 ft 456 kts 352°
2026-04-25 16:15 42.11186 -73.18957 29287 ft 456 kts 352°
2026-04-25 16:15 42.17490 -73.20037 29281 ft 456 kts 352°
2026-04-25 16:16 42.23786 -73.21122 29280 ft 456 kts 352°
2026-04-25 16:16 42.30087 -73.22208 29280 ft 456 kts 352°
2026-04-25 16:17 42.36388 -73.23294 29280 ft 456 kts 352°
2026-04-25 16:17 42.42644 -73.24374 29280 ft 456 kts 352°
2026-04-25 16:18 42.48944 -73.25466 29281 ft 456 kts 352°
2026-04-25 16:18 42.55260 -73.26375 29274 ft 457 kts 359°
2026-04-25 16:18 42.58426 -73.25939 29275 ft 459 kts 11°
2026-04-25 16:19 42.61452 -73.24582 29280 ft 460 kts 24°
2026-04-25 16:19 42.67079 -73.20417 29287 ft 460 kts 29°
2026-04-25 16:20 42.75473 -73.14061 29279 ft 460 kts 28°
2026-04-25 16:21 42.83877 -73.07709 29279 ft 460 kts 30°
2026-04-25 16:21 42.86384 -73.05015 29274 ft 462 kts 46°
2026-04-25 16:21 42.88264 -73.01469 29276 ft 462 kts 62°